Terminal Aerodrome Forecast
Issued by NWS Raleigh/Durham, NC

Home | Current Version | Previous Version | Text Only | Print | Product List | Glossary On
Versions: 1 2 3 4 5 6 7 8 9 10 11 12 13 14 15 16 17 18 19 20 21 22 23 24 25 26 27 28 29 30 31 32 33 34
000
FTUS42 KRAH 010543
TAFFAY
TAF
KFAY 010543Z 0106/0206 13009KT P6SM SCT060 OVC080
      TEMPO 0109/0112 3SM BR BKN010=

USA.gov is the U.S. government's official web portal to all federal, state and local government web resources and services.